sat.trackr.live / text

‹ back to catalog

STARLINK-31818

NORAD 59741 · 2024-090M

PAYLOAD ACTIVE UNKNOWN

§ Identity

Operator
Country
US
Launch date
2024-05-13
Launch site
AFETR
Launch vehicle
Mass (kg)
RCS (m²)

Purposes: comms

External: N2YO · Heavens-Above · Gunter

§ Orbital elements

Epoch: 2026-09-21T00:55:16.350816Z

Period
94.27 min
Inclination
43.0034°
Eccentricity
0.0001179
Mean motion
15.27578841 rev/d
Perigee alt
482.2 km
Apogee alt
483.9 km
Semi-major
6,861.2 km
B*
3.5149e-5
RAAN
160.4850°
Arg perigee
278.1446°
Mean anomaly
81.9272°
Rev number
13,331

§ Raw data

STARLINK-318181 59741U 24090M   26264.03838369  .00000705  00000+0  35149-4 0  99982 59741  43.0034 160.4850 0001179 278.1446  81.9272 15.27578841133314

JSON: /api/v1/satellites/59741 · /tle

For live sub-satellite position, see the globe view (requires WebGL).

§ Visibility from observer

Set your observer location to see the next 7 days of passes ≥ 10°. The values pass through the URL so the page stays shareable.

No JS? Fill the form by hand. The geolocation button needs JavaScript.